Find OneWeb SL0671

NORAD ID: 55830 Int'l Des: 2023-029 Owner: ONEWEBN Country: UK Constellation: oneweb operational
又名: ONEWEB-0671 spacetrack, celestrak
LEOCIRCULARPOLARONEWEB_TYPE

当前视图

正在加载3D地球...

About OneWeb SL0671

OneWeb SL0671 (NORAD 55830) is a oneweb constellation satellite launched Mar 9, 2023 by ONEWEBN of UK. It operates in LEO, CIRCULAR, POLAR, ONEWEB_TYPE orbit with a mass of 148.00 kg.

即将过境

Passes for default location (London). Set your location on the main map for personalized predictions.

高度历史

Loading altitude history...

两行轨道根数

1 55830U 23029AL 26228.71694135 .00000040 00000-0 67645-4 0 9999
2 55830 87.9157 292.9229 0002196 100.5817 259.5564 13.19725773166885
Epoch: Aug 16, 2026 • Age: 20 hours

当前状态

高度 1194.0 km
远地点 / 近地点 N/A
速度 7.26 km/s
星下点 56.50°N, 127.34°E
发射日期 Mar 9, 2023
运行时间 3.4 years
类型 internet

技术详情

分类 Payload
质量 148.00 kg
干质量 140.00 kg
总质量 148.00 kg
长度 1.30 m
直径 1.00 m
跨度 5.00 m
形状 Trapezoid+2 pan
制造商 ONEWUS
平台类型 ARROW
阶段状态 In Orbit
所有者/国家 ONEWEBN/UK

Most Searched